SENTINEL-5P (42969 NORAD) Tracking and Keplerian Element Data

This shows tracking and keplerian element data for the satellite.

Feedback or suggestion? Click here.




ElementValue
Catalog42969
NameSENTINEL-5P
Epoch Orbit25672
Epoch Day269.97025515
Epoch Year2022
RAAN208.3416
Inclination98.737
Eccentricity9.87E-05
Argument of Perigee84.1734
Mean Anonmoly275.9555
Mean Motion14.19551633
Decay Rate3.3E-07
L11 42969U 17064A 22269.97025515 .00000033 00000+0 36645-4 0 9996
L22 42969 98.7370 208.3416 0000987 84.1734 275.9555 14.19551633256729

Live tracking and technical data element details for SENTINEL-5P (NORAD 42969). SENTINEL-5P can be tracked NOW for your location showing map with azimuth and elevation plus other details from your city location.

Track the satellite on the map from your city or location and see movement details for azimuth, elevation, latitude, longitude, range, height, and movement on the map or in text.







IsCatalogInMostPopularTable: catalog: 42969, numindb: 1037
Update: records affected: 1



GetName: 42969 SENTINEL-5P

Hit Count: updated at: Wed, 05 Oct 2022 09:06:54 GMT